Regional Weather Roundup
Issued by NWS Austin/San Antonio, TX

Current Version | Previous Version | Text Only | Print | Product List | Glossary On
Versions: 1 2 3 4 5 6 7 8 9 10 11 12 13 14 15 16 17 18 19 20 21 22 23 24 25 26 27 28 29 30 31 32 33 34 35 36 37 38 39 40 41 42 43 44 45 46 47 48 49 50
000
ASUS44 KEWX 232011
RWREWX
SOUTH TEXAS REGIONAL WEATHER ROUNDUP
NATIONAL WEATHER SERVICE AUSTIN/SAN ANTONIO TX
300 PM CDT FRI OCT 23 2020

NOTE: "FAIR" INDICATED FEW OR NO CLOUDS BELOW 12,000 FEET WITH NO
SIGNIFICANT WEATHER AND/OR OBSTRUCTIONS TO VISIBILITY.

* - THESE STATIONS ARE NOT NWS OR FAA STATIONS...AND ARE NOT SUBJECT
    TO NWS AND FAA QUALITY CONTROL.

TXZ171-172-183>190-232100-
TEXAS HILL COUNTRY AND EDWARDS PLATEAU

CITY           SKY/WX    TMP DP  RH WIND       PRES   REMARKS
JUNCTION       CLOUDY    63  52  67 N13       30.14R
*LLANO         CLOUDY    55  52  88 N14G21    30.11R
BURNET         CLOUDY    60  55  83 N16G26    30.10R
*HORSESHOE BAY CLOUDY    68  61  77 N12G21    30.08S
*LAGO VISTA    CLOUDY    68  65  90 N13G21    30.05S
*KERRVILLE     CLOUDY    72  65  79 N9G20     30.05S
*FREDERICKSBRG CLOUDY    68  61  77 NE14G22   30.07S
*ROCKSPRINGS   SUNNY     72  59  64 N14       30.12S
*BOERNE        CLOUDY    79  64  61 N5        30.02F
*CASTROVILLE   PTSUNNY   87  64  46 E5        29.98F
HONDO          CLOUDY    86  67  52 E8        29.97F
*UVALDE        MOSUNNY   83  69  61 NE3       30.00F
DEL RIO        CLOUDY    86  70  58 VRB3      29.98F HX  90
*LAUGHLIN AFB  PTSUNNY   84  69  59 NW7       29.99F
*SPOFFORD      MOSUNNY  N/A N/A N/A NW6       29.93F
*EAGLE PASS    NOT AVBL
CARRIZO SPRGS  PTSUNNY   88  68  51 NE14G20   29.94F HX  91
*FAITH RANCH   MOSUNNY   91  66  43 E12       29.95S HX  94
$$

TXZ173-191>194-202-209-217>225-228-232100-
CENTRAL AND SOUTH CENTRAL TEXAS

CITY           SKY/WX    TMP DP  RH WIND       PRES   REMARKS
GEORGETOWN     CLOUDY    71  64  78 N12G20    30.06F
*TAYLOR        CLOUDY    74  65  74 N21       30.03S
AUSTIN/BERGSTM PTSUNNY   79  68  69 N14       30.00F
AUSTIN/MABRY   CLOUDY    75  66  73 N8        30.02F
*PFLUGERVILLE  CLOUDY    75  64  69 N16       30.02S
SAN MARCOS     CLOUDY    82  69  64 N15G23    29.99F
NEW BRAUNFELS  CLOUDY    88  66  48 NE5       29.96F HX  90
*RANDOLPH AFB  CLOUDY    86  67  53 N5        29.96F
*SEGUIN        CLOUDY    87  65  47 N8        29.99F
SAN ANTONIO    PTSUNNY   87  66  49 VRB5      29.97F
STINSON FIELD  CLOUDY    85  66  53 NE7       29.94F
*KELLY FIELD   PTSUNNY   87  66  50 NE5       29.95F
*PLEASANTON    SUNNY     90  67  46 NE3       29.96F HX  94
*KENEDY        SUNNY     89  68  50 NW8       29.95F HX  92
*LA GRANGE     CLOUDY    83  67  58 N12       29.95F
*GIDDINGS      CLOUDY    82  67  60 NE6       29.99F
*GONZALES      CLOUDY    89  68  49 NE8       29.95F HX  93
$$

TXZ163>164-176>182-195>201-210>213-226-227-235-232100-
SOUTHEAST TEXAS

CITY           SKY/WX    TMP DP  RH WIND       PRES   REMARKS
COLLEGE STN    CLOUDY    71  66  84 NW15G21   29.99R
*BRYAN         CLOUDY    69  68  96 NW12      30.02R
*CALDWELL      CLOUDY    72  69  89 N12       30.01R
*CROCKETT      NOT AVBL
*BRENHAM       CLOUDY    71  68  90 E3        29.98F
HUNTSVILLE     CLOUDY    70  64  81 E5        29.92F
CONROE         LGT RAIN  69  65  86 CALM      29.97F
HOUSTON BUSH   TSTM      72  64  76 N17G24    29.98S
HOUSTON HOBBY  PTSUNNY   88  69  53 N36G49    29.96R BLWGDUSTHX  92
*HOUSTON SW AP MOSUNNY   85  72  64 N5        29.95R HX  91
PEARLAND       MOSUNNY   90  69  50 N12       29.95S HX  94
HOUSTON HOOKS  LGT RAIN  68  63  84 E6        29.97F
ELLINGTON FLD  NOT AVBL
SUGAR LAND     PTSUNNY   77  65  66 N26G40    29.97R
*HOUSTON EXEC  RAIN      70  66  88 NE12G22   29.98R
*CLEVELAND MUN DRIZZLE   68  67  95 CALM      30.01F
*WHARTON       PTSUNNY   89  67  47 N13       29.94F HX  92
*COLUMBUS      NOT AVBL
*EAGLE LAKE    CLOUDY    76  67  72 NE16G31   29.96S
$$

TXZ214>216-236>238-232100-
THE UPPER TEXAS COAST

CITY           SKY/WX    TMP DP  RH WIND       PRES   REMARKS
*ORANGE        PTSUNNY   85  73  66 SE5       29.94F HX  91
PORT ARTHUR    CLOUDY    82  74  76 CALM      29.92F
GALVESTON      MOSUNNY   84  73  69 E8        29.94F HX  90
ANGLETON       PTSUNNY   85  73  67 E6        29.93F HX  91
*BAY CITY      MOSUNNY   90  71  54 N9G16     29.93S HX  96
PALACIOS       PTSUNNY   86  76  71 VRB7      29.92F HX  96
$$

TXZ229>234-239>247-232100-
TEXAS COASTAL BEND AND RIO GRANDE PLAINS

CITY           SKY/WX    TMP DP  RH WIND       PRES   REMARKS
VICTORIA       SUNNY     92  69  47 N8        29.93F HX  97
*BEEVILLE      NOT AVBL
ROCKPORT       SUNNY     87  75  67 SE9       29.91F HX  96
*PORT ARANSAS  SUNNY     84  75  73 E12       29.94S HX  92
*PORT LAVACA   PTSUNNY   89  70  53 N5        29.92F HX  94
*INGLESIDE     MOSUNNY   90  77  66 SE12      29.91S HX 102
CORPUS CHRISTI MOSUNNY   90  73  58 E8        29.91F HX  98
CORPUS NAS     MOSUNNY   88  75  65 E12       29.92F HX  97
*ROBSTOWN      PTSUNNY   89  69  50 N5        29.92S HX  93
ALICE          PTSUNNY   91  70  49 N6        29.91F HX  96
KINGSVILLE NAS MOSUNNY   92  68  45 SE9       29.89F HX  96
COTULLA        PTSUNNY   88  68  51 NE9       29.95F HX  91
LAREDO         MOSUNNY   94  69  44 VRB3      29.89F HX  99
$$

TXZ248>255-232100-
DEEP SOUTH TEXAS

CITY           SKY/WX    TMP DP  RH WIND       PRES   REMARKS
BROWNSVILLE    PTSUNNY   93  76  57 E13       29.87F HX 105
PORT ISABEL    MOSUNNY   87  76  69 E14       29.89F HX  97
HARLINGEN      MOSUNNY   93  76  57 E12       29.87F HX 105
*HEBBRONVILLE  PTSUNNY   89  64  43 E8        29.92F HX  90
MCALLEN        MOSUNNY   92  71  50 CALM      29.88F HX  98
*WESLACO       PTSUNNY   96  68  40 NE5       29.87F HX 101
FALFURRIAS     PTSUNNY   87  69  56 E6        29.89F HX  91
EDINBURG       MOSUNNY   91  65  42 E5        29.88F HX  92
*ZAPATA        SUNNY     98  65  34 SE3       29.89F HX 100
$$

TXZ213>215-236>238-242>244-246-247-251-254-255-232100-
CMAN STATIONS

STATION/POSITION TIME  TEMP    WIND        PRES    WAVE
                       AIR SEA DIR/SP/G            HT/PER
                 (UTC) (F)     (DEG/KT/KT) (MB)    (FT/S)
NORTH JETTY/GLS  1924   84 80  120/  9/ 11 1012.8
EAGLE POINT      1924   81 80  100/  5/  6 1013.3
MORGANS POINT    1924   82 81   80/  6/  7 1013.8
PORT O`CONNOR    1930   82 86  110/  4/  4 1013.3
MALAQUITE BEACH  1930   83      70/  9/ 10   N/A
BAFFIN BAY       1930   81 86   70/ 10/ 12 1012.4
PORT ISABEL      1930   83 83   70/ 11/ 12 1014.2
$$




USA.gov is the U.S. government's official web portal to all federal, state and local government web resources and services.